Skip Page Navigation
NASA JPL Caltech
NASA Logo - Jet Propulsion Laboratory + View the NASA Portal
+ Center for Near-Earth Object Studies
JPL Home Earth Solar System Stars & Galaxies Technology
JPL Solar System Dynamics
BODIES ORBITS EPHEMERIDES TOOLS PHYSICAL DATA DISCOVERY FAQ SITE MAP
JPL Small-Body Database Browser
Search: [ help ]  
14770 (2198 T-1)
Classification: Outer Main-belt Asteroid          SPK-ID: 2014770
Ephemeris | Orbit Diagram | Orbital Elements | Mission Design | Physical Parameters | Discovery Circumstances | Close-Approach Data ]

[ hide orbit diagram ]

For accurate long-term ephemerides, please instead use our Horizons system.This orbit viewer was implemented using two-body methods, and hence should not be used for determining accurate long-term trajectories (over several years or decades) or planetary encounter circumstances.


Orbital Elements at Epoch 2459396.5 (2021-Jul-01.0) TDB
Reference: JPL 25 (heliocentric ecliptic J2000)
 Element Value Uncertainty (1-sigma)   Units 
e .161383284335729 3.7681e-08  
a 3.201835447584107 2.2416e-08 au
q 2.685112727150424 1.268e-07 au
i 2.856006521867625 3.3804e-06 deg
node 83.42992871954476 0.00010598 deg
peri 32.30671663917493 0.00010693 deg
M 295.1973087639825 1.5443e-05 deg
tp 2459773.192940302430
(2022-Jul-12.69294030)
9.1814e-05 TDB
period 2092.651646441233
5.73
2.1976e-05
6.017e-08
d
yr
n .1720305434553412 1.8065e-09 deg/d
Q 3.718558168017789 2.6033e-08 au
  Orbit Determination Parameters
   # obs. used (total)      1154  
   data-arc span      18157 days (49.71 yr)  
   first obs. used      1971-03-24  
   last obs. used      2020-12-08  
   planetary ephem.      DE441  
   SB-pert. ephem.      SB441-N16  
   condition code      0  
   norm. resid. RMS      .50476  
   source      ORB  
   producer      Otto Matic  
   solution date      2021-Apr-13 00:38:48  

Additional Information
 Earth MOID = 1.70245 au 
 Jupiter MOID = 1.38791 au 
 T_jup = 3.172 
[ show covariance matrix ]

Ephemeris | Orbit Diagram | Orbital Elements | Mission Design | Physical Parameters | Discovery Circumstances | Close-Approach Data ]

Physical Parameter Table
Parameter Symbol Value Units Sigma Reference Notes
absolute magnitude H 14.21   n/a MPCxxxxx  
rotation period rot_per 14.894 h n/a LCDB (Rev. 2020-October); Warner et al., 2009 Result based on less than full coverage, so that the period may be wrong by 30 percent or so.
Published Reference List:
[Waszczak, A.; Chang, C.-K.; Ofeck, E.O.; Laher, F.; et al. (2015) Astron. J. 150, A75.]

14770 (2198 T-1)          Discovered 1971-Mar-25 by van Houten, C. J., van Houten-Groeneveld, I., Gehrels, T. at Palomar
Reference: 20000418/Numbers.arcLast Updated: 2004-04-19

[ show close-approach data ]
Alternate Designations
 2198 T-1 = 1994 CC11 
Ephemeris | Orbit Diagram | Orbital Elements | Mission Design | Physical Parameters | Discovery Circumstances | Close-Approach Data ]
ABOUT SSD CREDITS/AWARDS PRIVACY/COPYRIGHT GLOSSARY LINKS
FirstGov 2021-Aug-05 18:09 UT
(server date/time)  
NASA Home Page
Site Manager:   Ryan S. Park
Webmaster  Alan B. Chamberlin